Lid_Strength_Index
1 -0 -1 -1 -1 -1 -1 -1 -1 -1 -1 -1 -1 -1 -1 -1 -2 -2 -2 -1 -2 -2 -2 -2 -2 -2 -2 -2 -2 -2 -1 -1 -2 -1 -1 -2 -2 -2 -2 -2 -2 -1 -2
-0 -1 -1 -1 -1 -1 -1 -1 -1 -1 -1 -1 -1 -1 -1 -1 -2 -2 -2 -1 -2 -2 -2 -2 -2 -2 -2 -2 -2 -2 -1 -2 -1 -1 -1 -1 -1 -2 -2 -1 -2 -1 -2
0 -1 -1 -1 -1 -1 -1 -1 -1 -1 -1 -1 -1 -1 -1 -1 -2 -2 -2 -1 -2 -2 -2 -2 -2 -2 -2 -2 -2 -2 -1 -1 -1 -1 -1 -1 -1 -2 -2 -1 -1 -2 -1
-0 -1 -1 -1 -1 -1 -1 -1 -1 -1 -1 -1 -1 -1 -1 -2 -2 -2 -1 -1 -2 -2 -2 -2 -2 -2 -2 -2 -2 -2 -1 -1 -1 -1 -1 -1 -1 -2 -2 -2 -2 -2 -2
-0 -1 -1 -1 -1 -1 -1 -1 -1 -1 -1 -1 -1 -2 -2 -2 -2 -1 -1 -1 -2 -2 -2 -2 -2 -2 -2 -2 -2 -2 -1 -1 -1 -1 -1 -1 -1 -1 -2 -2 -2 -2 -2
-0 -1 -1 -1 -1 -1 -1 -1 -1 -1 -1 -1 -1 -2 -2 -2 -2 -1 -1 -2 -2 -2 -2 -2 -2 -2 -2 -2 -2 -2 -2 -1 -1 -1 -1 -1 -1 -1 -2 -1 -1 -1 -1
0 -1 -1 -1 -1 -1 -1 -1 -1 -1 -1 -1 -1 -2 -2 -2 -2 -1 -1 -2 -2 -2 -2 -2 -2 -2 -1 -2 -2 -2 -1 -1 -1 -1 -1 -1 -1 -2 -2 -2 -2 -2 -2
0 -0 -1 -1 -1 -1 -1 -1 -1 -1 -1 -1 -1 -1 -2 -2 -2 -1 -1 -1 -2 -2 -2 -2 -2 -2 -1 -2 -2 -1 -1 -1 -1 -1 -1 -1 -2 -2 -2 -1 -1 -2 -2
1 -0 -1 -1 -1 -0 -0 -1 -1 -1 -1 -1 -1 -1 -1 -1 -1 -1 -1 -2 -2 -2 -2 -2 -2 -2 -1 -2 -2 -1 -2 -1 -1 -1 -1 -1 -2 -1 -1 -1 -1 -1 -1
2 1 -0 -1 -1 -1 -1 0 -0 -0 -0 -1 -1 -0 0 0 -0 -1 -1 -1 -2 -2 -2 -2 -2 -2 -2 -2 -2 -2 -2 -1 -1 -1 -1 -1 -1 -1 -1 -1 -1 -1 -1
6 3 1 -0 -1 -1 -1 -0 0 0 1 0 0 1 1 -1 -1 -1 -0 -0 -1 -2 -2 -2 -2 -2 -2 -1 -2 -2 -1 -1 -1 -1 -1 -1 -1 -1 -1 -1 -1 -1 -1
7 5 2 1 -0 -1 -1 -1 -1 -1 -1 -1 -1 -1 -1 -1 -1 -1 0 0 -1 -1 -1 -2 -2 -1 -1 -1 -1 -1 -1 -1 -1 -1 -1 -1 -1 -1 -1 -1 -1 -1 -1
6 6 4 2 0 -0 -0 -1 -1 -1 -1 -1 -1 -1 -1 -1 -1 -1 -1 -1 -1 -0 -1 -1 -1 -1 -1 -1 -1 -1 -0 -1 -1 -1 -1 -1 -1 -1 -1 -1 -1 -1 -1
6 6 4 2 0 1 0 -0 -1 -0 -1 -0 -1 -1 -1 -1 -1 -1 -1 -1 -1 -1 -1 -1 -1 -1 -1 0 0 0 0 0 0 -0 -1 -1 -2 -2 -2 -2 -1 -1 -1
6 5 4 2 1 0 0 -0 -0 -0 -0 -1 -1 -1 -1 -0 -0 -0 -0 -1 -1 -1 -1 -1 -1 -1 -0 0 1 1 1 1 1 1 -0 0 -1 -2 -1 -2 -1 -1 -1
7 6 4 2 0 1 0 -0 0 -1 -1 -1 -1 -1 -1 -1 -0 0 0 -0 -1 -1 -1 -0 -1 -0 1 1 1 2 2 1 1 1 1 -0 0 -1 -2 -1 -2 -2 -1
6 6 5 3 -0 -0 0 0 -0 -0 -1 -0 -1 -1 -0 -1 -0 0 0 -0 -1 -0 0 -0 -0 0 0 1 2 2 2 1 1 1 1 0 0 0 -1 -2 -2 -2 -2
5 6 5 3 0 0 0 -0 -0 -0 -0 -0 -1 -1 -0 0 -0 0 0 -0 -0 0 0 1 1 2 2 2 2 3 2 1 1 1 1 0 0 0 0 -1 -2 -2 -2
5 5 5 4 1 0 0 -0 0 1 0 -0 -1 -1 -0 -0 -0 -0 -0 -0 0 0 1 1 1 1 1 2 2 2 1 1 1 2 1 0 -0 0 0 0 -0 -1 -2
5 4 4 3 2 0 0 0 0 1 0 -0 -0 -0 -0 -0 0 -0 -0 0 -0 -0 1 1 2 2 2 1 2 2 2 2 2 2 1 1 -0 -0 -0 0 0 -0 -0
5 5 4 3 2 1 1 2 2 2 1 1 -0 -0 -0 -0 -0 0 -0 0 -0 0 0 1 1 2 3 2 2 3 3 2 2 2 1 0 0 0 -0 -0 0 0 0
5 4 4 3 2 1 1 1 1 1 1 1 1 -0 -0 -0 -0 -0 0 1 1 0 1 1 1 2 2 3 4 4 5 3 2 2 2 2 2 1 1 1 0 0 -0
5 4 4 4 2 1 1 1 1 2 2 1 1 1 0 -0 -0 -0 -0 0 0 0 1 1 1 1 2 2 2 3 5 6 4 2 2 2 2 2 2 1 1 1 0
5 4 4 3 2 1 0 1 2 2 3 2 1 0 0 0 -0 -0 -0 -0 -0 0 1 1 0 1 1 2 2 2 1 2 5 5 4 4 3 3 2 1 1 1 1
3 3 3 3 1 1 1 1 2 2 2 1 1 1 1 0 -0 -0 -0 -0 0 0 0 1 1 1 1 2 2 3 2 2 3 4 5 4 3 3 3 2 1 1 1
2 3 2 2 2 1 1 1 2 2 2 2 2 2 1 1 0 -0 -0 -0 0 0 0 1 1 0 1 1 1 2 2 3 4 4 5 4 4 3 3 2 2 1 1